Satellite: OKEAN-0
Catalog number: 25860
Epoch time:      05229.83544985
Element set:     513
Inclination:      097.7545 deg
RA of node:       253.0119 deg
Eccentricity:    0.0001761
Arg of perigee:   062.7123 deg
Mean anomaly:     297.4247 deg
Mean motion:   14.73278104 rev/day
Decay rate:        3.8e-07 rev/day^2
Epoch rev:           32708
Checksum:              302

Satellite: NOAA-16
Catalog number: 26536
Epoch time:      05229.78563923
Element set:    0474
Inclination:      099.0175 deg
RA of node:       188.6015 deg
Eccentricity:    0.0009835
Arg of perigee:   253.1473 deg
Mean anomaly:     106.8604 deg
Mean motion:   14.12266379 rev/day
Decay rate:       3.84e-06 rev/day^2
Epoch rev:           25275
Checksum:              327

Satellite: NOAA-17
Catalog number: 27453
Epoch time:      05229.71369032
Element set:    0494
Inclination:      098.6579 deg
RA of node:       302.2872 deg
Eccentricity:    0.0011190
Arg of perigee:   233.8608 deg
Mean anomaly:     126.1530 deg
Mean motion:   14.23692529 rev/day
Decay rate:        4.0e-08 rev/day^2
Epoch rev:           16359
Checksum:              306

Satellite: NOAA-18
Catalog number: 28654
Epoch time:      05228.62618197
Element set:     106
Inclination:      098.7456 deg
RA of node:       174.0526 deg
Eccentricity:    0.0014455
Arg of perigee:   007.7280 deg
Mean anomaly:     352.4307 deg
Mean motion:   14.10873596 rev/day
Decay rate:       -3.9e-07 rev/day^2
Epoch rev:            1243
Checksum:              307

/EX
SB KEPS @ AMSAT  $ORB05230.M
Orbital Elements  05230.MISC

HR AMSAT ORBITAL ELEMENTS FOR MANNED AND MISCELLANEOUS SATELLITES
FROM WA5QGD FORT WORTH,TX August 18, 2005
Send SUBSCRIBE KEPS/UNSUBSCRIBE KEPS to majordomo@amsat.org only
BID: ORB05230.M
TO ALL RADIO AMATEURS BT

Satellite: HUBBLE
Catalog number: 20580
Epoch time:      05229.41348908
Element set:     406
Inclination:      028.4680 deg
RA of node:       229.8267 deg
Eccentricity:    0.0004174
Arg of perigee:   200.4690 deg
Mean anomaly:     159.5730 deg
Mean motion:   14.99800534 rev/day
Decay rate:       4.01e-06 rev/day^2
Epoch rev:           63944
Checksum:              294

Satellite: UARS
Catalog number: 21701
Epoch time:      05229.81678419
Element set:    0510
Inclination:      056.9815 deg
RA of node:       300.2154 deg
Eccentricity:    0.0006898
Arg of perigee:   091.6604 deg
Mean anomaly:     268.5223 deg
Mean motion:   15.03874874 rev/day
Decay rate:      -2.24e-06 rev/day^2
Epoch rev:           76276
Checksum:              306

Satellite: PO-34
Catalog number: 25520
Epoch time:      05230.83454000
Element set:     254
Inclination:      028.4595 deg
RA of node:       253.4288 deg
Eccentricity:    0.0005519
Arg of perigee:   181.5680 deg
Mean anomaly:     178.4905 deg
Mean motion:   15.16385602 rev/day
Decay rate:       4.98e-06 rev/day^2
Epoch rev:           37610
Checksum:              299

Satellite: ISS
Catalog number: 25544
Epoch time:      05230.80648148
Element set:     172
Inclination:      051.6454 deg
RA of node:       300.3207 deg
Eccentricity:    0.0000685
Arg of perigee:   306.3319 deg
Mean anomaly:     200.3602 deg
Mean motion:   15.71785546 rev/day
Decay rate:     1.1786e-04 rev/day^2
Epoch rev:           38553
Checksum:              279

Satellite: OO-38
Catalog number: 26063
Epoch time:      05229.66245201
Element set:    0419
Inclination:      100.2079 deg
RA of node:       100.9308 deg
Eccentricity:    0.0036706
Arg of perigee:   241.9605 deg
Mean anomaly:     117.7873 deg
Mean motion:   14.35728757 rev/day
Decay rate:      -1.15e-06 rev/day^2
Epoch rev:           29112
Checksum:              291

Satellite: NO-45
Catalog number: 26932
Epoch time:      05229.71771944
Element set:    0103
Inclination:      067.0580 deg
RA of node:       068.9846 deg
Eccentricity:    0.0004869
Arg of perigee:   244.0887 deg
Mean anomaly:     115.9701 deg
Mean motion:   14.29494065 rev/day
Decay rate:      -1.53e-06 rev/day^2
Epoch rev:           20259
Checksum:              326

/EX



----
Via the keps mailing list at AMSAT.ORG courtesy of AMSAT-NA.
To unsubscribe, send "unsubscribe keps" to Majordomo@amsat.org

--- ViaMAIL!/WC v1.60d
 * Origin: Chowdanet (401-331-0615) telnet://chowdanet.com  (1:323/120)